STARLINK-36885, 68049

Orbit data source: Space-Track

STARLINK-36885, 68049 is a payload satellite owned by SpaceX/Seattle (US) in LEO that was launched on Mon, 02 Mar 2026 UTC via an FALCON 9 launch vehicle from the Air Force Eastern Test Range (AFETR). Payload-class satellites include a variety of spacecraft equipped with specific instruments for various scientific and technological missions. These include communications satellites like Starlink; space stations such as the ISS; scientific satellites like the Hubble; Earth observation satellites from companies like Planet Labs, Umbra, and HawkEye 360; GPS; miniature CubeSats for education and research; and military/defense satellites.

Loading next visibility...
Identifier
68049, 2026-041K
Orbit
LEO
Country
Flag of USUS
Related business
Manufacturer
SpaceX/Seattle
Mission
Operational Commercial Communications
Bus & Motor
STARLINK V2MO, Unknown motor
Mass
575 kg wet, ~530 kg dry
Launch date (UTC)
2026-03-02 (2 months ago)
Launch vehicle
FALCON 9
Launch site
Air Force Eastern Test Range (AFETR)
Object type
Payload
Rocket body
Debris
Shape & HBR
Box + 2 Pan, 17.7 m
Radar Cross Section
36.964 m²

Expand to show TLE details & history
Last TLE update: 7 hours ago

TLE from 7 hours ago
0 STARLINK-36885
1 68049U 26041K   26119.14722881  .00026402  00000-0  68598-3 0  9995
2 68049  53.1609 175.5136 0001449  94.6639 265.4531 15.38794382  9113
Epoch: 2026-04-29T03:32Z
TLE epoch observation values (Epoch: 2026-04-29T03:32:00.569Z)
Latitude
-0.00001°
Longitude
-94.60114°
Altitude
450.655 km
Speed
7.643 km/s
True Right ascension
11h 42m 03s
True Declination
0° 00' 00"
Sunlit
Object was in full shadow at epoch
Visualization orbit readout
Latitude
Unknown
Longitude
Unknown
Altitude
Unknown
Speed
Unknown
Apparent Right ascension
Unknown
Apparent Declination
Unknown
Sunlit
N/A
Visualization observer readout
Local Sidereal Time
18:18:59
Azimuth
Unknown
Elevation
Unknown
Doppler factor
Unknown
Orbital elements
Apogee altitude
450.92 km
Perigee altitude
448.941 km
Semi-major axis
6,828.068 km
Eccentricity
0.00014
Inclination
53.1609°
RAAN
175.5136°
Arg. of periapsis
94.6639°
True anomaly
265.43655°
Mean anomaly
265.4531°
Eccentric anomaly
265.44482°
Mean motion
3.84677 °/min
Orbital period
93.58 mins
BSTAR
0.00068598
Loading maneuver chart data...
Computing Atmospheric mass density...
Loading historical data...
Loading historical data...
Loading historical data...
Loading historical data...
Loading historical data...
Loading historical data...
Loading historical data...

Documentation

Showing up to 5 results
|